DECAYED

STARLINK-30206, 57295 (Decayed)

Orbit data source: Space-Track

STARLINK-30206, 57295 was a payload satellite owned by SpaceX/Seattle (US) in LEO that was launched on Mon, 10 Jul 2023 UTC via an FALCON 9 launch vehicle from the Air Force Eastern Test Range (AFETR). Payload-class satellites include a variety of spacecraft equipped with specific instruments for various scientific and technological missions. These include communications satellites like Starlink; space stations such as the ISS; scientific satellites like the Hubble; Earth observation satellites from companies like Planet Labs, Umbra, and HawkEye 360; GPS; miniature CubeSats for education and research; and military/defense satellites.

Not visible in the next 10 days
Identifier
57295, 2023-096F
Orbit
Decayed
Country
Flag of USUS
Related business
Manufacturer
SpaceX/Seattle
Mission
Decayed Commercial Communications
Bus & Motor
STARLINK V2M, Unknown motor
Mass
730 kg wet, ~700 kg dry
Launch date (UTC)
2023-07-10 (3 years ago)
Launch vehicle
FALCON 9
Launch site
Air Force Eastern Test Range (AFETR)
Object type
Payload
Rocket body
Debris
Shape & HBR
Box + 2 Pan, 17.7 m
Radar Cross Section
33.884 m², Large (>1 m²)

Expand to show TLE details & history
Last TLE update: 1 year ago

TLE from 1 year ago
0 STARLINK-30206
1 57295U 23096F   25154.73569628  .17658768  91217-5  71453-2 0  9996
2 57295  42.9716 257.3010 0012968 350.8496 144.4842 16.22247661105042
Epoch: 2025-06-03T17:39Z
TLE epoch observation values (Epoch: 2025-06-03T17:39:24.158Z)
Latitude
28.69443°
Longitude
-115.72453°
Altitude
220.745 km
Speed
7.775 km/s
True Right ascension
02h 46m 13s
True Declination
28° 32' 17"
Sunlit
Object was in daylight at epoch
Visualization orbit readout
Latitude
Unknown
Longitude
Unknown
Altitude
Unknown
Speed
Unknown
Apparent Right ascension
Unknown
Apparent Declination
Unknown
Sunlit
N/A
Visualization observer readout
Local Sidereal Time
00:51:23
Azimuth
Unknown
Elevation
Unknown
Doppler factor
Unknown
Orbital elements
Apogee altitude
224.036 km
Perigee altitude
206.935 km
Semi-major axis
6,593.623 km
Eccentricity
0.0013
Inclination
42.9716°
RAAN
257.301°
Arg. of periapsis
350.8496°
True anomaly
144.57041°
Mean anomaly
144.4842°
Eccentric anomaly
144.52732°
Mean motion
4.05375 °/min
Orbital period
88.81 mins
BSTAR
0.0071453
Loading maneuver chart data...
Computing Atmospheric mass density...

Documentation

Showing up to 5 results
|